www.pogodaiklimat.ru

Погода и климат >> Архив погоды >> Португалия >> Санта-Катарина


ПОГОДА в Санта-Катарине

  • Прогноз погоды в Санта-Катарине
  • Монитор погоды в Санта-Катарине

АРХИВ ПОГОДЫ в Санта-Катарине

Время (UTC), дата Ветер
(напр.,м/с)
 
Видим.   Явления Облачность Т
(С)
Тd
(С)
f
(%)
Тe
(С)
Тes
(С)
Комфортность P
(гПа)
Po
(гПа)
Тmin
(С)
Tmax
(С)
R
(мм)
R24
(мм)
S
(см)
06 16.08 С 11
{33}
20 км 3/1 300 м
[Cu Sc As trans Cs]
+23.9 -73.6 60 +27 +27 жарко 1019.2 1012.4 +23.2
09 16.08 С 11
{19}
20 км 1/1 300 м
[]
+26.2 +17.0 57 +30 +30 душно 1019.4 1012.7
12 16.08 С 12
{39}
20 км 1/1 300 м
[]
+26.3 +19.0 64 +31 +31 душно 1019.5 1012.9
15 16.08 СВ 12
{19}
20 км 3/3 300 м
[]
+26.9 +20.2 67 +33 +33 очень
душно
1018.5 1011.9
18 16.08 СВ 13
{20}
20 км 3/3 420 м
[]
+25.2 +19.2 69 +30 +30 душно 1017.2 1010.5 +27.5
21 16.08 СВ 12-19
{19}
20 км 3/3 300 м
[]
+24.6 +17.9 66 +29 +29 душно 1018.1 1011.4
00 17.08 СВ 8-23
{33}
20 км 3/3 300 м
[]
+25.3 +16.3 57 +29 +29 душно 1018.4 1011.7
03 17.08 СВ 12-18
{18}
20 км 3/3 300 м
[]
+23.4 +16.6 66 +28 +28 душно 1017.0 1010.3
06 17.08 СВ 10
{33}
20 км 3/1 300 м
[Cu Sc As trans Cs]
+23.8 +17.3 67 +28 +28 душно 1016.8 1010.0 +23.2
09 17.08 СВ 12
{20}
10 км 4/4 300 м
[]
+23.3 +18.8 76 +30 +30 очень
душно
1018.1 1011.4
12 17.08 СВ 9-31
{31}
20 км 4/4 300 м
[]
+26.0 +19.8 69 +32 +32 очень
душно
1018.3 1011.6
15 17.08 СВ 12 20 км 3/3 300 м
[]
+26.6 +19.5 65 +32 +32 очень
душно
1017.7 1011.0
18 17.08 СВ 13 20 км 3/3 450 м
[]
+24.5 +18.3 68 +29 +29 душно 1016.8 1010.1 +26.8
21 17.08 СВ 13 20 км 3/3 300 м
[]
+22.5 +17.8 75 +28 +28 душно 1018.4 1011.6
00 18.08 СВ 8-27
{29}
20 км 4/4 300 м
[]
+22.1 +17.6 76 +27 +27 душно 1018.6 1011.9
03 18.08 СВ 7-11
{13}
20 км 4/4 300 м
[]
+22.2 +17.2 73 +27 +27 душно 1018.0 1011.2
06 18.08 СВ 10 20 км 4/3 300 м
[Cu Sc As trans Cs]
+22.1 +16.8 72 +26 +26 душно 1017.4 1010.6 +22.0
09 18.08 СВ 7-11
{14}
20 км 3/3 450 м
[Cu Sc Ac trans]
+23.0 +17.0 69 +28 +29 душно 1019.4 1012.7
12 18.08 СВ 10
{31}
20 км 4/4 300 м
[]
+25.1 +17.2 62 +29 +29 душно 1019.2 1012.5
15 18.08 СВ 9-13
{15}
20 км 1/1 300 м
[]
+25.7 +17.8 62 +30 +31 душно 1018.9 1012.2
18 18.08 СВ 9
{14}
20 км 1/1 480 м
[]
+24.2 +16.9 64 +28 +28 душно 1018.5 1011.8 +26.1
21 18.08 СВ 7-10
{12}
20 км 1/1 480 м
[Cu Sc]
+22.7 +16.8 69 +27 +27 душно 1019.8 1013.0
00 19.08 СВ 8-25
{27}
20 км 1/1 300 м
[]
+22.4 +16.4 69 +27 +27 душно 1020.3 1013.5
03 19.08 СВ 9 20 км 1/1 300 м
[]
+22.1 +17.0 73 +27 +27 душно 1018.8 1012.1
06 19.08 СВ 7
{23}
20 км 1/1 300 м
[Cu Sc As trans Cs]
+22.0 +17.1 74 +26 +26 душно 1018.7 1011.9 +21.9 0
09 19.08 СВ 5-8
{9}
20 км 5/5 300 м
[St Ac trans]
+23.1 +17.4 70 +28 +30 душно 1020.0 1013.2
12 19.08 В 8 20 км 4/4 300 м
[]
+24.4 +18.5 70 +29 +29 душно 1020.6 1013.9
15 19.08 В 9 н/о н/о +24.7 +18.6 69 +29 +29 душно 1020.0 1013.3
18 19.08 СВ 7-10
{12}
20 км 3/3 450 м
[]
+25.5 +18.5 65 +30 +31 душно 1019.9 1013.2 +26.7
21 19.08 СВ 5-9
{9}
20 км 4/4 300 м
[]
+23.5 +18.3 73 +28 +28 душно 1021.5 1014.7
00 20.08 СВ 7 20 км 3/3 300 м
[]
+23.1 +17.8 72 +29 +29 очень
душно
1021.4 1014.6
03 20.08 СВ 6-9
{11}
20 км 3/3 300 м
[]
+23.1 +17.7 72 +29 +29 очень
душно
1020.5 1013.7
06 20.08 СВ 4
{14}
20 км 3/1 300 м
[Cu Sc As trans Cs]
+23.9 +17.6 68 +28 +28 душно 1020.3 1013.6 +22.5 0
09 20.08 СВ 5-9
{10}
20 км 3/3 300 м
[]
+25.2 +18.6 67 +30 +32 душно 1020.9 1014.2
12 20.08 В 6
{17}
20 км 6/5 300 м
[St Ac trans]
+23.4 +19.8 80 +30 +30 очень
душно
1022.1 1015.3
15 20.08 В 6 20 км 9/6 300 м
[St Ac trans]
+23.0 +19.1 79 +29 +30 очень
душно
1021.6 1014.8
18 20.08 СВ 5
{9}
20 км 9/9 420 м
[]
+23.5 +18.1 72 +28 +28 душно 1021.1 1014.4 +26.2
21 20.08 СВ 6-9
{9}
20 км 9/8 300 м
[St Ac trans]
+22.8 +17.6 72 +28 +28 душно 1021.5 1014.7
00 21.08 СВ 5-17
{17}
20 км 9/6 300 м
[St Ac trans]
+22.1 +18.2 79 +27 +27 душно 1022.2 1015.4
03 21.08 СВ 7-11
{12}
20 км 9/5 300 м
[St Ac trans]
+22.3 +16.9 71 +27 +27 душно 1020.8 1014.0
06 21.08 СВ 10 20 км 6/5 300 м
[St Ac trans]
+21.9 -39.3 1 +26 +26 душно 1020.3 1013.6 +21.2
09 21.08 СВ 8-13
{13}
20 км 5/5 300 м
[]
+22.6 +16.8 70 +27 +28 душно 1021.1 1014.3
12 21.08 СВ 12-18
{19}
20 км 3/3 300 м
[]
+24.2 +15.7 59 +27 +27 жарко 1020.4 1013.7
15 21.08 СВ 9-13
{18}
20 км 3/3 300 м
[]
+24.5 +16.1 59 +28 +29 душно 1020.0 1013.3
18 21.08 СВ 10-16
{16}
20 км 1/1 480 м
[]
+23.6 +16.6 65 +27 +27 жарко 1019.6 1012.8 +25.4
21 21.08 СВ 10
{15}
20 км 1/1 300 м
[]
+22.2 +16.2 69 +26 +26 душно 1020.0 1013.2
00 22.08 СВ 7-23
{29}
20 км 3/3 480 м
[Cu Sc]
+21.6 +15.3 67 +25 +25 комфорт 1019.4 1012.6
03 22.08 СВ 7-11
{14}
20 км 4/4 480 м
[Cu Sc]
+21.5 +15.2 67 +25 +25 комфорт 1017.7 1011.0
06 22.08 СВ 12-19
{27}
20 км 5/5 480 м
[Cu Sc]
+21.6 +14.8 65 +25 +25 комфорт 1017.4 1010.6 +21.3
09 22.08 СВ 7-13
{15}
20 км 3/3 540 м
[Cu Sc]
+22.4 +15.0 63 +26 +27 жарко 1017.9 1011.1
12 22.08 СВ 11
{35}
20 км 1/1 600 м
[Cu Sc]
+24.5 +15.3 57 +27 +27 жарко 1017.6 1010.8
15 22.08 СВ 10-15
{16}
н/о н/о +25.2 +15.6 55 +28 +29 жарко 1016.7 1010.0
18 22.08 СВ 8-13
{14}
н/о н/о +23.7 +15.8 61 +27 +27 жарко 1016.0 1009.3 +25.5
21 22.08 СВ 9-13
{14}
20 км 3/3 480 м
[Cu Sc]
+21.9 +15.6 67 +26 +26 душно 1016.4 1009.7
00 23.08 СВ 6
{21}
20 км 3/3 480 м
[Cu Sc]
+21.5 +15.5 69 +25 +25 комфорт 1016.8 1010.1
03 23.08 С 6-9
{14}
20 км 1/1 480 м
[Cu Sc]
+21.6 +15.4 68 +25 +25 комфорт 1016.2 1009.4

 

Местоположение метеостанции Санта-Катарина (Португалия): широта 32.68 долгота -16.76 высота над уровнем моря 49 м.

В архиве по умолчанию представлена погода в Санта-Катарине за последнюю неделю. Архивные данные за месяц целиком и за предыдущие месяцы, начиная с января 2011 года, Вы можете получить, выбрав интересующий диапазон дат из раскрывающегося списка и нажав кнопку "Ввод!".


*Определитесь, кто Вы:
робот инопланетянин человек

Внимание! Время в таблицах - всемирное. Для получения местного времени необходимо прибавить поправку, которая равна 0 ч.

Смотрите также архив погоды в соседних городах и на ближайших метеорологических станциях:

Погода в Фуншале (Португалия) (14 км)
Погода на Порту-Санту (Португалия) (58 км)
Погода на Пальме (Канарские Острова) (461 км)
Погода в Тасакорте (Канарские Острова) (467 км)
Погода на Тенерифе (Канарские Острова) (470 км)
Погода в Санта-Круз-де-Тенерифе (Канарские Острова) (473 км)
Погода в Пуэрто-де-ла-Крус (Канарские Острова) (474 км)
Погода в Тенерифе-Гуимаре (Канарские Острова) (486 км)
Погода в Обсерватории Izana (Канарские Острова) (488 км)
Погода в Сан-Себастьян-де-ла-Гомера (Канарские Острова) (512 км)

Пояснения к столбцам:

Ветер - указаны скорость ветра в м/с - средняя за 10 мин, порывы в срок и между сроками (в фигурных скобках) и направление, откуда дует ветер: С - северный, СВ - северо-восточный, В - восточный, ЮВ - юго-восточный, Ю - южный, ЮЗ - юго-западный, З - западный, СЗ - северо-западный.
Видимость - горизонтальная дальность видимости в метрах или километрах. При видимости от 1 до 10 км при отсутствии осадков обычно наблюдается дымка, при ухудшении видимости до 1 км и менее - туман. В сухую погоду видимость может ухудшаться дымом, пылью или мглою.
Явления - указаны атмосферные явления, наблюдавшиеся в срок или в последний час перед сроком; фигурными скобками обозначены явления, наблюдавшиеся между сроками (за 1-3 часа до срока); квадратными скобками обозначены град или гололедные отложения с указанием их диаметра в мм.
Облачность - указаны через наклонную черту общая и нижняя облачность в баллах и высота нижней границы облаков в метрах; квадратными скобками обозначены формы облаков: Ci - перистые, Cs - перисто-слоистые, Cc - перисто-кучевые, Ac - высококучевые, As - высокослоистые, Sc - слоисто-кучевые, Ns - слоисто-дождевые, Cu - кучевые, Cb - кучево-дождевые. Подробнее классификацию облаков см. в Атласе облаков (PDF).
T - Температура воздуха - температура, измеренная на высоте 2 м над землей.
Td - Температура точки росы - температура, при понижении до которой содержащийся в воздухе водяной пар достигнет насыщения.
f - Относительная влажность воздуха - влажноcть воздуха, измеренная на высоте 2 м над землей.
Te - Эффективная температура - температура, которую ощущает одетый по сезону человек в тени. Характеристика душности погоды. При расчете учитывается влияние влажности воздуха и скорости ветра на теплоощущения человека.
Tes - Эффективная температура на солнце - температура, которую ощущает человек, с поправкой на солнечный нагрев. Характеристика знойности погоды. Зависит от высоты солнца над горизонтом, облачности и скорости ветра. Ночью, в пасмурную погоду, а также при ветре 12 м/с и более поправка равна нулю.
P - Атмосферное давление - приведенное к уровню моря атмосферное давление.
Po - Атмосферное давление - измеренное на уровне метеостанции атмосферное давление.
Tmin - Минимальная температура - минимум температуры воздуха на высоте 2 м над землей.
Tmax - Максимальная температура - максимум температуры воздуха на высоте 2 м над землей.
R - Количество осадков - Количество выпавших осадков за период времени, мм. При наведении курсора мыши на число - период времени, за который выпало указанное количество осадков.
R24 - Количество осадков - Количество выпавших осадков за 24 часа, мм.
S - Снежный покров - Высота снежного покрова, см. При наведении курсора мыши на число - состояние снежного покрова и степень покрытия местности в баллах.